Find Starlink 5031

NORAD ID: 53889 Int'l Des: 2022-119 Owner: SPXS Country: US Constellation: starlink operational
LEOCIRCULAR

現在のビュー

3D地球を読み込み中...

About Starlink 5031

Starlink 5031 (NORAD 53889) is a starlink constellation satellite (v1.5) launched Sep 24, 2022 by SPXS of US. It operates in LEO, CIRCULAR orbit with a mass of 305.00 kg.

次回通過

Passes for default location (London). Set your location on the main map for personalized predictions.

高度履歴

Loading altitude history...

軌道要素

1 53889U 22119D 26230.58335648 .00052022 00000-0 18072-2 0 9994
2 53889 53.1605 316.0693 0001498 56.0312 55.8729 15.29271036 5841
Epoch: Aug 18, 2026 • Age: 9 hours

現在のステータス

高度 491.4 km
遠地点 / 近地点 N/A
速度 7.62 km/s
衛星直下点 -39.95°S, 31.93°W
打ち上げ日 Sep 24, 2022
運用期間 3.8 years
タイプ internet

技術仕様

分類 Payload
質量 305.00 kg
乾燥質量 290.00 kg
総質量 305.00 kg
長さ 0.20 m
直径 2.80 m
スパン 9.00 m
形状 Box + pan
製造者 SPXS
バスタイプ Starlink
フェーズステータス In Orbit
所有者/国 SPXS/US

Most Searched